User: anonymous   Login
Location: Unspecified
(0.0000°N, 0.0000°E)
Time: 06:39:24
(UTC+00:00)
Language:

ALMASAT-1 - Orbit

View from above orbital plane
View from above orbital plane
View from above satellite
View from above satellite

Ground track
Ground track

The orbit data is extracted from the following two-line orbital elements,

1 38078U 12006B   19082.58727594  .00025428  40567-5  17106-3 0  9998
2 38078  69.4320 154.5518 0182435  37.3895  69.8190 15.56438756383905
Epoch (UTC): 23 March 2019 14:05:40
Eccentricity: 0.0182435
inclination: 69.4320°
perigee height: 274 km
apogee height: 521 km
right ascension of ascending node: 154.5518°
argument of perigee: 37.3895°
revolutions per day: 15.56438756
mean anomaly at epoch: 69.8190°
orbit number at epoch: 38390

The dashed part of the orbit path shows where the satellite is in the earth's shadow,  

DLR